Location: Carrières
(48.9495°N, 2.0407°E)
Time: 02:07:51
(UTC+00:00)

Transit 2A Rocket - Pass Details

Date: 30 April 2024
Orbit: 585 x 908 km, 66.7° (Epoch: 19 May)

Event Time Altitude Azimuth Distance (km) Brightness Sun altitude
Rises 16:17:33 0° 326° (NW) 3,277 8.6 26.3°
Reaches altitude 10° 16:20:04 10° 334° (NNW) 2,396 7.9 25.9°
Maximum altitude 16:25:15 38° 43° (NE) 1,279 6.1 25.0°
Drops below altitude 10° 16:30:45 10° 110° (ESE) 2,547 7.3 24.1°
Sets 16:33:29 0° 118° (ESE) 3,508 7.9 23.7°
